{"data":{"norad_id":61206,"epoch":"2026-05-25T01:01:20.455104Z","epoch_age_seconds":64646,"freshness":"FRESH","line1":"1 61206U 24171G   26145.04259786  .00000804  00000+0  11489-4 0  9997","line2":"2 61206  53.1583 159.6594 0000983  73.1454 286.9671 15.69711019 96391","mean_motion":15.69711019,"eccentricity":9.83e-5,"inclination_deg":53.1583,"raan_deg":159.6594,"arg_perigee_deg":73.1454,"mean_anomaly_deg":286.9671,"bstar":1.1489e-5,"rev_number":9639,"period_min":91.736630664501,"perigee_km":359.06150271339,"apogee_km":360.38616615344,"semimajor_km":6737.8608344334,"source":"CELESTRAK","updated_at":"2026-05-25T13:38:19.359663Z"}}